Location: Newark
(52.5694°N, 1.3190°W)
Time: 02:29:41
(UTC+00:00)

N. Korean satellite - Pass Details

Date: 26 January 2020
Orbit: 456 x 505 km, 97.2° (Epoch: 26 February)

Event Time Altitude Azimuth Distance (km) Brightness Sun altitude
Rises 05:15:39 0° 23° (NNE) 2,538 10.5 -24.2°
Reaches altitude 10° 05:17:59 10° 37° (NE) 1,663 9.7 -23.9°
Maximum altitude 05:20:58 25° 94° (E) 1,025 8.9 -23.4°
Drops below altitude 10° 05:23:59 10° 151° (SSE) 1,675 9.6 -23.0°
Sets 05:26:19 0° 165° (SSE) 2,560 10.4 -22.6°
